Theta_e
324 324 324 325 325 324 323 321 321 320 320 319 318 318 319 319 321 322 322 323 324 322 323 320 321 321 319 319 319 317 312 313 315 317 318 320 317 320 326 329 331 334 334 336 338
324 324 325 324 323 322 321 321 320 317 316 314 313 312 313 314 318 320 322 323 323 323 322 322 322 321 318 319 320 317 310 313 314 316 318 319 317 318 320 331 333 333 334 336 339
323 323 323 322 321 321 321 320 315 311 311 311 310 309 309 309 314 320 322 324 323 323 323 322 321 317 318 319 319 317 315 316 316 317 318 318 319 317 318 317 330 333 335 337 337
321 321 320 320 320 320 318 314 310 309 308 307 308 307 307 308 315 323 323 318 321 323 324 320 316 316 317 317 318 316 317 319 319 320 318 316 318 317 317 318 318 327 328 335 335
320 320 318 317 316 314 311 310 308 307 306 306 306 306 307 306 310 315 314 318 319 323 322 322 321 317 316 317 317 316 317 319 320 318 318 318 316 316 317 318 319 329 333 334 334
318 314 312 311 310 309 308 308 307 306 306 305 305 305 306 309 315 315 315 321 322 322 320 320 321 321 320 316 316 317 317 318 319 319 317 317 316 317 318 321 324 329 332 333 334
309 308 308 307 307 306 306 306 306 306 305 305 304 303 305 309 313 310 310 312 318 316 316 317 318 322 320 316 318 317 316 316 318 319 316 318 316 315 319 325 328 331 332 334 333
306 305 306 306 306 306 306 305 305 304 303 302 302 302 304 309 309 312 313 310 312 315 315 315 317 321 320 319 316 315 316 319 319 318 320 317 317 316 319 327 331 331 331 331 331
305 305 306 306 305 306 306 305 304 302 302 301 304 305 306 310 313 313 313 315 317 316 317 315 318 318 319 315 313 315 317 317 318 317 318 316 317 317 321 320 326 329 330 331 331
303 303 303 303 302 302 302 302 302 302 301 302 310 310 309 310 313 313 315 315 317 318 318 320 316 312 310 311 317 315 318 318 319 317 316 315 314 313 316 315 321 325 328 329 329
303 302 302 301 300 300 300 300 310 311 315 311 314 308 310 312 313 315 314 313 312 316 317 318 316 315 316 312 313 314 316 317 317 317 316 315 314 313 314 313 311 320 322 325 326
304 303 302 300 299 298 297 303 309 311 311 310 310 311 313 314 315 313 313 312 311 312 314 314 316 318 319 314 314 315 317 318 317 316 316 315 315 313 312 312 314 315 318 321 318
303 303 302 300 298 298 307 309 309 309 308 307 306 307 306 306 310 310 309 312 309 308 309 312 315 314 317 319 319 318 316 316 315 315 315 316 317 317 315 314 315 315 318 318 318
303 303 303 300 297 308 309 310 310 308 303 305 307 305 305 305 307 307 307 310 307 308 307 307 310 313 314 314 316 318 317 318 318 315 315 316 318 316 316 315 315 315 315 316 316
303 303 303 302 301 306 307 309 310 310 296 304 308 310 310 307 309 316 312 307 306 307 308 308 309 310 312 313 313 313 313 314 315 314 313 313 313 314 315 315 314 313 314 315 315
304 303 303 303 302 306 305 306 304 301 303 308 311 310 311 312 312 312 315 315 312 312 309 308 309 308 310 311 311 313 312 313 314 312 313 314 313 314 312 313 314 315 316 314 314
304 303 303 303 303 306 306 306 304 303 304 305 308 306 304 307 311 311 311 314 312 312 310 310 310 310 309 309 310 312 312 313 315 314 315 314 315 315 313 314 313 313 314 313 313
304 304 303 303 303 302 305 309 304 301 304 303 303 304 305 306 306 312 312 311 313 315 315 317 317 309 312 309 309 310 312 313 316 316 315 313 315 313 313 313 314 312 311 310 308
303 303 304 304 304 303 305 306 300 303 303 302 303 304 306 307 308 308 308 313 315 314 315 315 316 312 311 314 312 310 312 312 313 313 313 311 311 312 313 313 313 311 310 308 307
303 303 303 303 304 303 304 303 302 303 302 303 303 304 305 305 307 308 308 309 313 314 312 314 313 312 313 313 313 313 311 312 314 317 316 313 313 313 314 315 313 310 308 306 305
302 302 302 303 303 303 305 302 302 301 302 303 303 303 303 304 306 307 309 308 309 311 312 311 312 312 311 313 313 316 317 317 316 317 316 316 316 314 314 314 313 312 308 306 307
301 301 301 303 303 301 304 304 302 302 301 302 301 302 303 303 304 306 308 307 308 308 309 308 311 312 311 312 313 315 316 314 318 319 319 317 317 314 313 313 313 313 312 309 307
300 301 301 301 303 303 304 305 304 304 304 304 304 303 303 303 304 306 307 307 307 308 309 307 309 306 308 311 310 312 310 310 310 312 313 315 317 312 310 310 313 313 311 309 306
298 298 298 301 301 302 302 303 304 303 304 304 304 303 303 303 303 304 305 307 308 307 306 307 306 307 308 306 305 306 309 310 311 309 309 310 309 308 310 310 313 313 309 309 310
297 296 297 299 300 301 301 301 301 303 303 303 303 303 303 303 303 303 305 305 306 306 306 305 305 306 307 306 307 305 304 304 305 305 307 305 305 307 307 308 311 310 311 310 310
295 295 297 297 298 299 300 302 302 303 303 303 303 303 302 303 303 303 305 304 305 305 305 305 305 305 304 304 304 304 304 303 303 304 303 304 304 303 306 308 309 309 309 311 310
294 295 296 295 292 295 294 298 300 301 302 302 302 303 303 303 304 303 304 304 304 304 304 305 304 307 307 305 305 301 304 304 301 304 305 305 305 305 305 306 306 306 306 306 307
Wind_Speed
17 17 17 18 19 21 21 21 22 23 24 24 26 26 25 29 26 21 21 10 10 10 15 15 12 14 10 7 8 5 2 4 4 2 6 12 8 12 7 13 4 2 16 15 39
17 19 19 18 21 22 20 22 24 26 25 25 24 26 24 26 28 25 4 5 5 9 12 14 18 16 10 7 10 1 3 8 7 4 5 6 5 9 2 5 4 10 8 29 41
22 21 21 21 21 22 23 24 25 25 24 25 25 25 24 23 23 5 3 6 12 15 15 14 11 10 5 10 3 1 4 4 12 20 9 3 8 7 5 4 12 23 29 41 40
21 21 22 22 23 25 25 26 24 23 24 24 24 24 23 20 7 3 10 20 14 14 14 11 5 9 3 5 5 6 10 7 8 14 9 3 4 8 4 6 15 22 24 42 42
22 23 24 24 25 25 25 24 23 22 23 24 24 24 26 15 27 20 20 12 13 14 9 8 13 11 4 6 11 3 5 16 24 16 13 11 6 9 15 8 10 25 32 39 40
24 23 23 23 24 24 24 24 23 23 23 23 24 22 20 12 13 5 12 14 12 13 12 10 7 14 12 4 2 6 19 19 20 24 14 6 9 1 12 8 16 27 32 35 37
22 21 21 22 23 24 25 24 23 23 22 21 23 21 24 40 26 23 21 26 20 18 21 16 16 13 8 7 8 9 7 9 14 10 6 11 7 8 22 19 26 30 31 35 35
22 22 22 23 24 24 24 24 23 21 21 18 19 17 20 21 23 22 13 26 24 24 22 18 17 18 7 9 10 6 5 4 9 5 15 4 10 15 26 26 30 34 35 37 36
23 24 24 24 25 24 25 25 22 20 19 19 17 8 19 10 9 8 8 13 4 10 12 21 21 20 11 1 5 2 5 6 10 8 6 8 9 18 38 28 25 31 35 36 38
19 20 21 22 23 21 22 22 20 18 18 18 12 8 17 7 1 3 9 10 14 12 15 10 11 4 1 4 9 5 5 7 7 7 1 7 9 10 25 26 29 33 37 37 40
13 16 18 18 19 17 18 13 6 4 5 10 5 13 19 15 13 11 10 16 12 10 5 9 4 10 17 8 7 10 14 14 16 15 6 9 6 10 12 8 14 27 33 39 43
11 12 13 13 12 10 8 3 4 9 14 22 28 35 37 32 20 34 21 10 3 4 4 6 15 10 10 10 11 14 17 19 16 15 8 10 7 9 7 9 17 25 31 39 35
12 10 9 9 6 2 1 2 7 10 8 13 30 25 27 28 33 41 37 19 8 9 8 14 7 6 14 16 16 17 16 16 17 9 8 2 13 4 5 7 14 21 29 40 47
10 10 9 5 2 1 4 4 7 11 4 7 6 8 13 12 8 18 24 25 6 11 10 13 9 16 18 14 11 21 12 19 21 6 6 5 16 6 3 7 6 15 28 34 43
9 8 7 4 3 2 5 6 6 2 4 4 5 1 2 14 2 5 5 18 16 12 5 9 8 4 8 8 7 15 7 11 11 5 2 5 3 2 3 6 8 10 22 36 44
12 10 8 5 4 2 6 5 1 5 8 5 5 4 2 4 4 3 3 2 3 3 6 16 27 10 4 7 4 7 7 5 2 3 5 10 8 15 6 7 11 18 31 25 41
15 13 12 9 5 2 5 3 4 4 4 4 2 6 11 5 4 7 5 2 3 1 5 11 13 13 18 18 18 5 3 4 5 4 10 6 5 15 6 13 6 13 27 23 39
14 14 16 13 9 7 3 2 6 5 8 15 10 13 4 5 7 6 4 6 3 4 3 4 7 3 9 11 8 15 9 6 7 9 11 1 6 5 4 7 9 15 21 25 28
14 17 21 17 12 7 2 6 8 6 4 5 12 6 4 3 4 7 7 4 9 10 8 1 6 10 12 2 3 8 10 7 6 2 1 4 4 7 7 7 10 14 20 30 33
14 15 25 17 15 14 6 12 6 4 8 7 2 4 4 7 7 7 4 5 5 1 5 5 6 6 4 7 6 2 3 4 1 4 5 5 2 5 5 6 7 8 13 21 26
14 6 11 7 17 13 8 10 9 26 11 3 2 3 1 9 1 4 5 4 5 4 1 5 5 5 6 3 3 6 5 5 2 3 5 3 2 12 14 8 7 9 18 24 31
12 4 6 11 9 6 5 7 11 19 12 8 10 8 5 4 7 4 6 4 4 0 2 0 2 4 6 6 2 5 2 1 3 2 3 5 3 5 10 11 17 17 17 10 14
7 7 11 13 6 10 5 13 10 12 4 4 6 5 3 3 4 3 3 2 8 5 3 2 2 4 6 3 5 7 3 2 4 2 2 3 2 2 4 7 3 10 15 15 10
5 2 5 16 22 11 8 8 9 21 18 17 10 12 12 11 7 6 5 4 4 5 9 5 4 7 9 3 2 2 4 6 6 2 2 5 15 11 9 9 9 19 11 16 17
9 4 3 2 6 11 15 9 15 17 22 16 6 16 14 8 11 10 3 3 3 7 1 1 6 5 10 10 9 10 8 8 9 11 8 15 14 15 4 10 17 14 13 25 28
7 4 3 7 11 6 7 6 15 17 4 11 13 16 15 14 14 9 3 3 1 3 2 4 3 2 8 15 7 9 10 9 7 9 10 11 11 7 12 20 17 22 20 23 26
11 10 5 6 1 1 3 5 8 15 15 25 24 17 15 13 13 12 14 9 7 4 0 3 1 2 5 9 3 5 10 9 4 4 6 6 11 7 10 8 5 11 20 27 28
Wind_Direction
310 310 312 314 318 322 323 324 325 324 323 324 324 324 326 321 320 319 318 283 279 295 311 316 317 343 334 338 332 255 62 272 253 268 298 320 358 30 96 115 92 74 165 178 170
305 304 306 310 312 315 317 318 319 318 319 321 323 323 327 322 320 316 354 52 3 319 317 320 323 335 331 302 312 105 155 241 222 210 243 300 336 325 78 116 79 103 156 163 173
306 304 306 304 306 308 311 313 316 317 318 319 321 322 327 325 321 299 269 323 318 317 316 319 324 327 293 312 313 52 221 263 272 256 249 222 290 307 341 257 199 166 158 169 174
304 303 302 302 304 306 309 311 313 314 315 317 317 319 323 319 290 303 256 305 304 305 301 306 313 326 289 301 323 313 252 269 294 316 325 246 248 284 205 294 293 207 188 172 179
297 297 297 299 300 302 304 306 310 311 312 313 315 315 320 298 276 302 271 272 283 301 278 287 301 302 261 290 313 225 284 324 309 304 307 298 236 262 275 293 257 190 176 177 181
290 291 292 295 296 298 299 302 305 307 307 308 308 307 308 278 307 319 289 258 249 263 280 275 274 305 289 263 190 287 303 296 301 298 290 268 283 339 274 212 187 185 183 184 186
283 285 286 288 290 293 296 297 299 301 302 304 301 304 290 271 289 283 271 257 252 255 267 267 279 285 303 322 293 299 299 311 289 283 278 288 306 246 262 196 180 185 189 186 190
283 283 283 284 287 289 291 292 295 299 298 299 293 300 274 296 289 284 289 259 254 245 255 277 268 268 257 275 308 316 312 279 263 257 269 152 263 271 263 186 180 188 191 192 191
280 281 283 284 285 286 287 289 292 292 291 288 295 276 272 285 286 310 317 292 301 250 266 256 256 261 262 222 342 248 247 239 303 200 244 167 242 249 253 198 188 189 194 195 194
278 280 282 284 287 290 291 294 296 287 276 276 254 274 263 277 165 263 304 296 266 277 281 258 233 182 261 126 232 228 220 248 230 288 271 278 254 273 256 192 192 193 196 198 198
289 289 286 289 290 295 298 314 344 295 255 227 271 235 269 278 287 255 277 309 292 260 246 275 168 209 228 195 220 252 267 267 275 275 283 262 251 275 280 236 186 199 198 198 201
293 301 300 293 296 299 307 75 22 305 293 268 264 262 264 269 285 261 262 294 288 253 290 287 247 238 242 228 221 238 252 263 271 270 258 253 260 260 272 227 216 201 199 197 186
292 300 303 298 296 279 130 322 316 305 267 265 259 256 255 249 243 252 257 264 226 259 238 242 230 219 219 238 248 247 245 257 253 258 271 302 276 216 246 249 244 220 219 198 196
294 299 314 315 219 225 177 265 306 313 302 274 242 261 238 224 278 259 243 229 218 238 248 261 205 238 258 248 242 260 254 258 260 226 250 197 277 223 227 264 248 234 219 203 196
284 295 298 314 294 114 272 278 300 315 317 244 196 213 215 172 306 35 272 214 221 231 191 234 291 254 247 231 222 273 278 266 257 222 157 209 225 90 226 253 269 273 234 222 207
278 284 276 263 249 246 285 290 125 53 249 288 166 188 85 216 268 322 13 52 204 186 238 259 257 246 239 269 247 299 292 268 261 154 212 229 198 267 225 219 249 258 272 250 199
265 268 264 244 214 233 281 169 68 191 295 251 126 33 340 275 260 187 206 220 177 149 282 289 253 251 233 253 268 209 257 288 241 206 245 150 200 246 234 268 235 253 269 245 183
257 259 252 249 240 264 280 83 210 226 235 302 329 329 283 308 294 210 189 218 138 115 13 318 321 35 337 224 236 220 191 208 250 240 255 230 227 255 54 23 70 82 101 115 133
249 257 252 243 229 233 200 211 216 203 250 321 328 303 319 25 11 19 329 253 199 175 166 137 262 315 327 334 281 231 214 216 234 222 134 257 297 296 36 33 85 101 116 127 137
252 259 263 255 231 215 207 230 244 250 315 348 279 265 352 339 339 23 301 3 356 143 125 184 280 267 299 339 335 27 210 225 17 172 226 246 244 245 41 81 81 86 96 108 123
248 260 272 259 225 214 215 215 243 252 278 272 267 307 319 310 191 290 268 9 322 8 299 134 178 287 345 299 228 359 356 4 89 162 202 233 180 32 36 2 122 117 119 127 140
226 233 224 194 194 230 216 211 227 260 249 239 235 240 234 279 285 271 227 203 334 256 37 332 217 272 243 253 52 63 340 74 244 78 320 282 196 15 30 27 54 61 82 124 147
228 245 241 230 234 234 212 220 238 259 209 219 210 191 196 262 281 246 260 203 208 199 205 198 33 329 315 37 58 79 113 230 141 272 143 329 30 213 181 271 346 27 56 66 131
225 262 241 221 236 242 272 251 252 254 258 245 262 268 272 265 244 272 248 278 267 225 162 139 186 190 246 207 57 237 207 234 204 154 186 216 278 247 229 249 196 186 200 213 198
199 229 247 258 238 231 245 252 251 266 240 266 239 236 237 252 258 243 290 272 237 332 212 132 215 201 258 264 241 242 257 230 210 257 269 273 267 272 201 218 205 226 232 206 206
196 200 212 270 297 272 274 212 238 246 282 241 240 243 249 245 237 254 162 195 148 49 12 332 254 44 267 263 267 281 275 273 266 259 252 259 263 279 248 244 211 211 223 232 219
219 226 239 254 233 327 226 289 300 307 259 252 263 267 279 243 215 225 207 189 172 143 136 204 180 66 266 256 322 313 240 232 188 230 233 254 274 297 289 300 306 262 236 232 237